GW6301 Weather Reports


time (UTC)temp
C
wind
direction
speed
KPH
gust
KPH
rain 1hr
cm
rain 24hr
cm
rain mn
cm
humidity
%
barometer
mb
20260504070252 5 149 0.0 1.6 0.00 0.00 0.00 77 1009.1
20260504050752 6 50 0.0 1.6 0.00 0.00 0.00 77 1009.5
20260504050251 6 14 0.0 0.0 0.00 0.00 0.00 77 1009.5
20260504045752 6 26 0.0 1.6 0.00 0.00 0.00 77 1009.5
20260504045252 6 32 0.0 0.0 0.00 0.00 0.00 76 1009.5
20260504044751 6 350 0.0 0.0 0.00 0.00 0.00 75 1009.5
20260504044251 7 343 0.0 0.0 0.00 0.00 0.00 74 1009.5
20260504043751 7 13 0.0 1.6 0.00 0.00 0.00 74 1009.5
20260504043252 7 332 0.0 1.6 0.00 0.00 0.00 74 1009.5
20260504042751 7 28 0.0 1.6 0.00 0.00 0.00 74 1009.5
20260504042251 8 26 0.0 0.0 0.00 0.00 0.00 73 1009.5
20260504041751 8 24 0.0 0.0 0.00 0.00 0.00 74 1009.5
20260504041252 8 336 0.0 1.6 0.00 0.00 0.00 71 1009.5
20260504040751 8 8 0.0 0.0 0.00 0.00 0.00 70 1009.5
20260504040251 8 337 0.0 0.0 0.00 0.00 0.00 72 1009.5
20260504035751 8 64 0.0 0.0 0.00 0.00 0.00 71 1009.5
20260504035251 8 29 0.0 0.0 0.00 0.00 0.00 71 1009.5
20260504034751 8 27 0.0 0.0 0.00 0.00 0.00 72 1009.5
20260504034251 8 15 0.0 0.0 0.00 0.00 0.00 71 1009.5
20260504033751 8 5 0.0 0.0 0.00 0.00 0.00 69 1009.5
20260504033251 9 5 0.0 0.0 0.00 0.00 0.00 69 1009.5
20260504032751 9 8 0.0 0.0 0.00 0.00 0.00 69 1009.5
20260504032251 9 348 0.0 0.0 0.00 0.00 0.00 68 1009.5
20260504031751 9 46 0.0 0.0 0.00 0.00 0.00 67 1009.8
20260504031251 10 1 0.0 0.0 0.00 0.00 0.00 68 1009.8
20260504030751 10 11 0.0 0.0 0.00 0.00 0.00 65 1009.8
20260504030252 10 67 0.0 1.6 0.00 0.00 0.00 62 1009.8
20260504025751 10 136 0.0 3.2 0.00 0.00 0.00 60 1009.8
20260504025251 10 95 0.0 1.6 0.00 0.00 0.00 60 1009.5
20260504024751 10 162 0.0 1.6 0.00 0.00 0.00 59 1009.8
20260504024252 10 358 0.0 3.2 0.00 0.00 0.00 58 1009.8
20260504023752 10 118 0.0 3.2 0.00 0.00 0.00 60 1009.8
20260504023252 10 343 0.0 1.6 0.00 0.00 0.00 59 1009.8
20260504022751 10 329 1.6 4.8 0.00 0.00 0.00 58 1009.8
20260504022251 10 320 1.6 6.4 0.00 0.00 0.00 58 1009.8
20260504021752 10 218 4.8 9.7 0.00 0.00 0.00 60 1009.8
20260504021251 10 252 4.8 12.9 0.00 0.00 0.00 59 1009.8
20260504020751 10 241 3.2 12.9 0.00 0.00 0.00 60 1009.8
20260504020251 10 233 4.8 16.1 0.00 0.00 0.00 60 1009.8
20260504015751 10 307 6.4 16.1 0.00 0.00 0.00 60 1009.8
20260504015252 10 229 4.8 19.3 0.00 0.00 0.00 60 1010.2
20260504014751 10 186 11.3 20.9 0.00 0.00 0.00 62 1010.2
20260504014251 10 227 9.7 16.1 0.00 0.00 0.00 60 1010.2
20260504013751 10 210 11.3 27.4 0.00 0.00 0.00 58 1010.2
20260504013251 10 203 11.3 32.2 0.00 0.00 0.00 55 1009.8
20260504012751 10 330 4.8 12.9 0.00 0.00 0.00 55 1009.5
20260504012251 10 265 4.8 11.3 0.00 0.00 0.00 55 1009.8
20260504011752 10 233 3.2 8.0 0.00 0.00 0.00 56 1009.8
20260504011251 10 336 3.2 9.7 0.00 0.00 0.00 58 1009.8
20260504010752 10 205 9.7 24.1 0.00 0.00 0.00 57 1009.8
20260504010252 10 188 8.0 20.9 0.00 0.00 0.00 56 1009.8
20260504005751 10 285 3.2 6.4 0.00 0.00 0.00 56 1009.5
20260504005251 10 101 6.4 16.1 0.00 0.00 0.00 57 1009.8
20260504004751 10 308 3.2 9.7 0.00 0.00 0.00 55 1009.8
20260504004251 10 227 1.6 11.3 0.00 0.00 0.00 57 1009.8
20260504003752 10 212 1.6 6.4 0.00 0.00 0.00 55 1009.5
20260504003251 11 241 1.6 4.8 0.00 0.00 0.00 55 1009.5
20260504002751 10 234 4.8 14.5 0.00 0.00 0.00 55 1009.5
20260504002251 11 268 4.8 12.9 0.00 0.00 0.00 55 1009.5
20260504001751 11 243 3.2 8.0 0.00 0.00 0.00 55 1009.8
20260504001252 11 345 4.8 12.9 0.00 0.00 0.00 54 1009.5
20260504000751 11 319 4.8 12.9 0.00 0.00 0.00 53 1009.5
20260504000252 11 200 3.2 11.3 0.00 0.00 0.00 52 1009.5
20260503235751 11 279 3.2 11.3 0.00 0.00 0.00 52 1009.5
20260503235251 11 56 0.0 4.8 0.00 0.00 0.00 53 1009.1
20260503234752 11 137 0.0 4.8 0.00 0.00 0.00 52 1009.1
20260503234251 11 124 0.0 1.6 0.00 0.00 0.00 53 1009.1
20260503233751 11 333 0.0 1.6 0.00 0.00 0.00 52 1008.8
20260503233251 11 312 1.6 11.3 0.00 0.00 0.00 50 1008.8
20260503232751 11 251 0.0 3.2 0.00 0.00 0.00 50 1008.8
20260503232252 11 303 0.0 1.6 0.00 0.00 0.00 51 1008.8
20260503231751 11 255 0.0 3.2 0.00 0.00 0.00 50 1008.8
20260503231251 11 340 0.0 3.2 0.00 0.00 0.00 50 1008.8
20260503230751 11 221 3.2 9.7 0.00 0.00 0.00 49 1008.8
20260503230252 11 205 1.6 8.0 0.00 0.00 0.00 49 1008.8
20260503225751 11 230 3.2 6.4 0.00 0.00 0.00 48 1008.8
20260503225252 11 236 1.6 4.8 0.00 0.00 0.00 49 1008.8
20260503224751 11 320 0.0 4.8 0.00 0.00 0.00 49 1008.8
20260503224251 11 314 1.6 4.8 0.00 0.00 0.00 50 1008.8
20260503223751 11 359 0.0 4.8 0.00 0.00 0.00 50 1008.8
20260503223251 11 264 3.2 14.5 0.00 0.00 0.00 48 1008.8
20260503222751 11 268 3.2 6.4 0.00 0.00 0.00 48 1008.8
20260503222251 11 207 3.2 9.7 0.00 0.00 0.00 49 1008.8
20260503221751 11 286 6.4 16.1 0.00 0.00 0.00 48 1008.8
20260503221252 11 325 4.8 14.5 0.00 0.00 0.00 48 1008.8
20260503220752 11 216 6.4 11.3 0.00 0.00 0.00 47 1008.8
20260503220251 12 111 3.2 6.4 0.00 0.00 0.00 50 1009.1
20260503215751 12 336 4.8 9.7 0.00 0.00 0.00 47 1008.8
20260503215251 12 155 6.4 16.1 0.00 0.00 0.00 47 1009.1
20260503214751 12 243 4.8 11.3 0.00 0.00 0.00 48 1008.8
20260503214251 12 343 4.8 11.3 0.00 0.00 0.00 48 1009.1
20260503213752 12 271 4.8 11.3 0.00 0.00 0.00 48 1009.1
20260503213251 12 69 6.4 17.7 0.00 0.00 0.00 48 1009.1
20260503212752 12 194 8.0 17.7 0.00 0.00 0.00 47 1009.1
20260503212252 12 272 6.4 11.3 0.00 0.00 0.00 46 1009.1
20260503211751 12 271 4.8 12.9 0.00 0.00 0.00 49 1009.1
20260503211253 12 232 8.0 17.7 0.00 0.00 0.00 47 1009.1
20260503210751 12 118 6.4 16.1 0.00 0.00 0.00 48 1009.1
20260503210251 12 304 4.8 12.9 0.00 0.00 0.00 47 1009.1
20260503205751 11 90 4.8 19.3 0.00 0.00 0.00 49 1009.1
20260503205251 11 253 6.4 20.9 0.00 0.00 0.00 49 1009.1
20260503204751 11 123 6.4 14.5 0.00 0.00 0.00 48 1009.1
20260503204252 12 284 4.8 14.5 0.00 0.00 0.00 48 1009.1
20260503203751 12 226 3.2 12.9 0.00 0.00 0.00 49 1009.1
20260503203251 11 277 3.2 9.7 0.00 0.00 0.00 47 1009.1
20260503202751 11 246 6.4 16.1 0.00 0.00 0.00 48 1009.1
20260503202252 12 295 4.8 6.4 0.00 0.00 0.00 47 1009.1
20260503201752 12 354 1.6 1.6 0.00 0.00 0.00 47 1009.1
20260503201251 12 354 6.4 14.5 0.00 0.00 0.00 47 1009.1
20260503200751 12 38 6.4 12.9 0.00 0.00 0.00 46 1009.5
20260503200251 11 243 6.4 11.3 0.00 0.00 0.00 47 1009.5
20260503195752 11 1 6.4 16.1 0.00 0.00 0.00 46 1009.5
20260503195251 11 320 6.4 11.3 0.00 0.00 0.00 48 1009.5
20260503194751 11 265 8.0 17.7 0.00 0.00 0.00 47 1009.8
20260503194251 11 163 6.4 11.3 0.00 0.00 0.00 45 1009.5
20260503193751 11 75 8.0 16.1 0.00 0.00 0.00 45 1009.8
20260503193251 12 248 4.8 14.5 0.00 0.00 0.00 45 1009.5
20260503192752 11 334 8.0 22.5 0.00 0.00 0.00 45 1009.5
20260503192252 12 301 4.8 9.7 0.00 0.00 0.00 44 1009.8
20260503191751 12 328 4.8 12.9 0.00 0.00 0.00 42 1009.8
20260503191251 13 300 4.8 9.7 0.00 0.00 0.00 41 1009.8
20260503190753 12 336 4.8 12.9 0.00 0.00 0.00 42 1009.8
20260503190251 12 354 6.4 12.9 0.00 0.00 0.00 44 1009.8
20260503185751 12 317 6.4 16.1 0.00 0.00 0.00 43 1009.8
20260503185252 11 204 6.4 12.9 0.00 0.00 0.00 46 1009.8
20260503184751 11 3 8.0 22.5 0.00 0.00 0.00 44 1009.8
20260503184251 11 24 6.4 14.5 0.00 0.00 0.00 44 1010.2
20260503183751 11 337 6.4 17.7 0.00 0.00 0.00 44 1010.2
20260503183251 12 309 4.8 9.7 0.00 0.00 0.00 44 1009.8
20260503182751 12 315 6.4 14.5 0.00 0.00 0.00 41 1009.8
20260503182251 13 17 4.8 11.3 0.00 0.00 0.00 43 1010.2
20260503181751 12 312 11.3 24.1 0.00 0.00 0.00 43 1010.2
20260503181251 13 124 6.4 20.9 0.00 0.00 0.00 39 1010.2
20260503180751 13 305 6.4 14.5 0.00 0.00 0.00 41 1010.5
20260503180251 13 95 6.4 12.9 0.00 0.00 0.00 44 1010.5
20260503175751 12 185 8.0 12.9 0.00 0.00 0.00 43 1010.5
20260503175253 12 11 8.0 16.1 0.00 0.00 0.00 41 1010.5
20260503174751 13 300 4.8 11.3 0.00 0.00 0.00 40 1010.5
20260503174251 13 332 4.8 12.9 0.00 0.00 0.00 42 1010.5
20260503173751 12 291 6.4 12.9 0.00 0.00 0.00 43 1010.5
20260503173251 12 241 6.4 14.5 0.00 0.00 0.00 43 1010.5
20260503172751 11 233 11.3 20.9 0.00 0.00 0.00 43 1010.5
20260503172251 12 324 8.0 19.3 0.00 0.00 0.00 42 1010.5
20260503171751 12 343 8.0 16.1 0.00 0.00 0.00 42 1010.5
20260503171252 12 356 4.8 17.7 0.00 0.00 0.00 41 1010.8
20260503170751 11 209 6.4 14.5 0.00 0.00 0.00 43 1010.8
20260503170252 11 297 6.4 12.9 0.00 0.00 0.00 46 1010.8
20260503150751 8 230 4.8 9.7 0.00 0.00 0.00 51 1011.5
20260503150251 9 243 8.0 16.1 0.00 0.00 0.00 46 1011.5
20260503140251 8 326 4.8 9.7 0.00 0.00 0.00 46 1011.5
20260503131252 7 327 4.8 12.9 0.00 0.00 0.00 58 1011.5
20260503130752 6 241 4.8 11.3 0.00 0.00 0.00 64 1011.5
20260503130252 6 355 4.8 9.7 0.00 0.00 0.00 63 1011.9
20260503110751 2 69 0.0 1.6 0.00 0.00 0.00 85 1011.5
20260503110251 2 316 1.6 6.4 0.00 0.00 0.00 86 1011.5
20260503100252 2 295 1.6 3.2 0.00 0.00 0.00 85 1010.8
20260503090252 2 328 0.0 3.2 0.00 0.00 0.00 84 1010.8
20260503081251 2 7 0.0 4.8 0.00 0.00 0.00 83 1010.8
20260503080751 2 337 0.0 3.2 0.00 0.00 0.00 83 1010.8
20260503080251 2 22 1.6 11.3 0.00 0.00 0.00 83 1010.8
20260503072751 2 319 1.6 4.8 0.00 0.00 0.00 82 1010.8
20260503072251 2 355 1.6 6.4 0.00 0.00 0.00 82 1010.8
20260503071751 2 348 1.6 6.4 0.00 0.00 0.00 82 1010.8
20260503071252 2 11 1.6 6.4 0.00 0.00 0.00 81 1010.8
20260503070751 2 44 0.0 4.8 0.00 0.00 0.00 81 1010.8